Location: Vojnic
(45.3264°N, 15.6972°E)
Time: 10:55:41
(UTC+02:00)

Cosmos 2219 - Visible Passes

Search period start: 09 October 2024 00:00
Search period end: 19 October 2024 00:00
Orbit: 831 x 860 km, 71.1° (Epoch: 08 October)

Date Brightness Start Highest point End Pass type
(mag) Time Alt. Az. Time Alt. Az. Time Alt. Az.
09 Oct 5.5 03:13:14 18° N 03:13:14 18° N 03:14:45 10° NNE visible
10 Oct 5.7 02:59:53 15° N 02:59:53 15° N 03:00:59 10° NNE visible
11 Oct 5.8 02:46:31 13° NNE 02:46:31 13° NNE 02:47:12 10° NNE visible
12 Oct 6.0 02:33:07 11° NNE 02:33:07 11° NNE 02:33:26 10° NNE visible
